General Aviation Weather

Text Reports

Enter one or more of the following location identifiers separated by a space:

Zip Code, Four-Character ICAO or Three-Character IATA airport codes.

METAR - Aviation Routine Weather Report
KCTJ - Carrollton, Georgia
Updated at 2:55 AM GMT on August 31, 2015 (10:55 PM EDT):
METAR KCTJ 310255Z AUTO 00000KT 10SM SCT016 BKN022 OVC060 21/20 A3014 RMK AO2 T02090197
TAF - Terminal Area Forecast
KCTJ - Carrollton, Georgia
Updated at 2:55 AM GMT on August 31, 2015 (10:55 PM EDT):
No TAF is currently available for this location.
Decoded:
No decoded TAF is available.
PIREP - Pilot Weather Report
KCTJ - Carrollton, Georgia
Updated at 2:55 AM GMT on August 31, 2015 (10:55 PM EDT):
No PIREP is currently available for this location.
AIRMET - Airmens Meteorological Information
KCTJ - Carrollton, Georgia
Updated at 2:55 AM GMT on August 31, 2015 (10:55 PM EDT):
No AIRMET is currently available for this location.
SIGMET - Significant Meteorological Information
KCTJ - Carrollton, Georgia
Updated at 2:55 AM GMT on August 31, 2015 (10:55 PM EDT):
No SIGMET is currently available for this location.
NOTAM - Notice to Airmen
KCTJ - Carrollton, Georgia
Updated at 2:55 AM GMT on August 31, 2015 (10:55 PM EDT):
No NOTAM is currently available for this location.
Forecast Area
KCTJ - Carrollton, Georgia
Updated at 2:55 AM GMT on August 31, 2015 (10:55 PM EDT):
No NOTAM is currently available for this location.
Aviation Weather Maps